[[{"header":{"parameterUnit":"m.s-1","parameterCategory":1,"la1":30.2991,"la2":30.254,"lo1":-89.0895,"lo2":-89.0444,"dy":0.0017,"dx":0.0017,"nx":28,"ny":28,"refTime":"2024-06-09T03:00:00:Z","depth":0,"parameterNumber":2,"parameterNumberName":"U-component_of_WINDS"},"data":[0,0,0,0,0,0,0,0,0,0,0,0,0,0,0,0,0,0,0,0,0,0,0,0,0,0,0,0,0,0,0,0,0,0,0,0,0,0,0,0,0,0,0,0,0,0,0,0,0,0,0,0,0,0,0,0,0,0,0.5014,0.5016,0,0.5181,0.5183,0.5185,0.526,0.526,0.5259,0.5259,0.5431,0.5436,0.544,0,0,0,0,0,0,0,0,0,0,0,0,0,0.4759,0.4763,0.5014,0.5016,0.5018,0.5181,0.5183,0.5186,0.526,0.526,0.5259,0.5259,0.5429,0.5435,0.5441,0,0,0,0,0,0,0,0,0,0,0,0,0,0.4892,0.4764,0.5014,0.5075,0.5082,0.5181,0.5184,0.5186,0.526,0.526,0.5259,0.5259,0.5428,0.5435,0.5442,0.5492,0,0,0.5464,0.5467,0,0,0,0,0,0,0,0,0.4884,0.4901,0.5064,0.5071,0.5079,0.5199,0.5157,0.5289,0.526,0.5192,0.5259,0.5259,0.5354,0.5367,0.54,0.55,0.5508,0.5464,0.5469,0.5472,0.5474,0,0,0,0,0,0,0,0.4875,0.4895,0.508,0.5066,0.5075,0.5094,0.5112,0.5182,0.5273,0.5198,0.5204,0.5223,0.5358,0.5392,0.5404,0.551,0.5464,0.547,0.5475,0.5478,0.5661,0.5661,0,0,0,0,0,0,0.4856,0.4886,0.5075,0.5085,0.4979,0.5099,0.512,0.5161,0.5273,0.5289,0.5223,0.5226,0.538,0.5396,0.541,0.5477,0.5472,0.5478,0.5482,0.566,0.5661,0.5662,0,0,0,0,0,0,0.485,0.4872,0.5068,0.4988,0.5014,0.5103,0.5149,0.5165,0.5199,0.5291,0.5308,0.5241,0.5381,0.54,0.5471,0.5484,0.5481,0.5488,0.566,0.566,0.5661,0.5611,0,0,0,0,0,0,0.4842,0.4869,0.489,0.4987,0.5018,0.5126,0.515,0.5168,0.5211,0.5216,0.5313,0.5328,0.5382,0.546,0.5478,0.5494,0.5494,0.5659,0.566,0.5661,0.5612,0.561,0.5608,0,0,0,0,0,0.4833,0.4869,0.489,0.4913,0.5045,0.5127,0.5144,0.5205,0.5211,0.5233,0.5292,0.5325,0.548,0.5467,0.5488,0.5506,0.5658,0.566,0.5661,0.5612,0.561,0.5608,0,0,0,0,0,0,0.477,0.4883,0.4908,0.4976,0.5041,0.5139,0.5168,0.5201,0.5265,0.5268,0.5341,0.5362,0.5426,0.5473,0.5457,0.5561,0.5572,0.5577,0.5528,0.5526,0.5525,0.5512,0.55,0,0,0,0,0,0.4764,0.4821,0.4917,0.4968,0.4999,0.5077,0.5115,0.5156,0.5227,0.5255,0.5319,0.5387,0.545,0.5491,0.5555,0.5618,0.5641,0.5641,0.5639,0.5638,0.5642,0.5679,0.568,0.5666,0.5666,0.5666,0,0,0.4753,0.4821,0.4853,0.4957,0.5012,0.5069,0.51,0.516,0.5203,0.5264,0.5335,0.5384,0.5464,0.5532,0.5565,0.5573,0.565,0.5639,0.5637,0.5642,0.568,0.5682,0.5683,0.5667,0.5667,0.5666,0,0,0.4762,0.4819,0.4868,0.4923,0.5006,0.5058,0.5069,0.5162,0.5197,0.5269,0.5316,0.5369,0.5477,0.5532,0.5574,0.5602,0.5635,0.5621,0.5612,0.5647,0.5649,0.565,0.566,0.5663,0.5625,0.5625,0.5625,0,0.4737,0.4825,0.4889,0.4946,0.499,0.5048,0.5098,0.5148,0.5247,0.5277,0.5284,0.5421,0.5479,0.556,0.5567,0.5599,0.5614,0.5611,0.5643,0.5645,0.5648,0.5658,0.5662,0.5622,0.5623,0.5623,0.5623,0,0.4791,0.4851,0.4881,0.4975,0.5023,0.5076,0.5148,0.5188,0.5225,0.5276,0.5348,0.542,0.5499,0.5521,0.5558,0.5607,0.561,0.5629,0.5642,0.5646,0.5657,0.5662,0.5619,0.562,0.5621,0.5621,0,0,0.4765,0.4894,0.4904,0.4948,0.5043,0.5091,0.5147,0.5224,0.5257,0.5323,0.5372,0.5462,0.548,0.5528,0.5571,0.5602,0.562,0.5618,0.5621,0.5616,0.568,0.5665,0.5668,0.5642,0.5643,0.5644,0.5673,0,0.4787,0.489,0.4948,0.5026,0.5083,0.5138,0.5186,0.525,0.5299,0.5354,0.5408,0.5471,0.549,0.5519,0.5552,0.5611,0.5634,0.561,0.5689,0.5691,0.5667,0.5674,0.5659,0.5683,0.5678,0.5679,0.5679,0,0.4827,0.4892,0.4976,0.5065,0.5091,0.5133,0.5208,0.526,0.5333,0.5367,0.5419,0.5462,0.5523,0.553,0.5615,0.5597,0.5633,0.5666,0.5669,0.5679,0.5685,0.5685,0.5692,0.5695,0.5687,0.5686,0.5686,0,0.48,0.4909,0.4973,0.5009,0.5114,0.5142,0.5188,0.5261,0.5303,0.5369,0.5397,0.5469,0.5508,0.5563,0.5624,0.5623,0.5703,0.5715,0.5732,0.5731,0.5747,0.5745,0.576,0.5769,0.5769,0.5769,0.5769,0,0.4819,0.4868,0.4963,0.5002,0.5058,0.5125,0.5179,0.5229,0.5293,0.5343,0.5395,0.5441,0.5518,0.5574,0.5622,0.5685,0.5702,0.5731,0.5743,0.5727,0.5723,0.5752,0.5752,0.577,0.5769,0.5769,0.5769,0,0.4799,0.4864,0.4938,0.5031,0.5056,0.5094,0.5174,0.5214,0.5265,0.5328,0.5346,0.5426,0.5494,0.556,0.5652,0.5684,0.5746,0.5763,0.5722,0.5729,0.5742,0.574,0.5776,0.5784,0.5787,0.5786,0.5786,0,0.4807,0.4846,0.4944,0.4981,0.5025,0.5084,0.5128,0.5194,0.5238,0.5324,0.5354,0.5425,0.5486,0.5592,0.5658,0.5728,0.5747,0.5755,0.5758,0.574,0.5748,0.5745,0.5749,0.5753,0.5753,0.5752,0.5752,0,0.4814,0.4845,0.4905,0.4977,0.5028,0.5088,0.5149,0.5177,0.5256,0.5301,0.5371,0.5418,0.5511,0.5582,0.5659,0.5706,0.5742,0.575,0.5758,0.5742,0.5717,0.5731,0.5717,0.5749,0.575,0.575,0.575,0.575,0.4809,0.4846,0.4921,0.4987,0.504,0.5096,0.5139,0.5195,0.5254,0.5335,0.5371,0.5441,0.5513,0.5621,0.5667,0.5723,0.5732,0.5744,0.5747,0.5748,0.5745,0.5707,0.5738,0.5738,0.5738,0.5738,0.5738,0,0.482,0.487,0.493,0.5015,0.5066,0.5095,0.5165,0.5206,0.5268,0.5332,0.539,0.547,0.5539,0.561,0.5683,0.5714,0.5732,0.5731,0.573,0.574,0.5732,0.5719,0.5715,0.5715,0.5715,0.5715,0.5715,0.5715,0.4831,0.4896,0.4934,0.5026,0.5076,0.5146,0.5183,0.5235,0.5287,0.5374,0.5431,0.5476,0.5544,0.5621,0.5685,0.5705,0.5729,0.5723,0.5747,0.5739,0.574,0.5742,0.5729,0.5727,0.5727,0.575,0.575,0.575]},{"header":{"parameterUnit":"m.s-1","parameterCategory":1,"la1":30.2991,"la2":30.254,"lo1":-89.0895,"lo2":-89.0444,"dy":0.0017,"dx":0.0017,"nx":28,"ny":28,"refTime":"2024-06-09T03:00:00:Z","depth":0,"parameterNumber":3,"parameterNumberName":"V-component_of_WINDS"},"data":[0,0,0,0,0,0,0,0,0,0,0,0,0,0,0,0,0,0,0,0,0,0,0,0,0,0,0,0,0,0,0,0,0,0,0,0,0,0,0,0,0,0,0,0,0,0,0,0,0,0,0,0,0,0,0,0,0,0,3.7468,3.7468,0,3.7448,3.7448,3.7448,3.742,3.7419,3.7419,3.7418,3.7397,3.7397,3.7397,0,0,0,0,0,0,0,0,0,0,0,0,0,3.7479,3.7479,3.7468,3.7468,3.7467,3.7449,3.7448,3.7448,3.742,3.7419,3.7418,3.7418,3.7397,3.7397,3.7397,0,0,0,0,0,0,0,0,0,0,0,0,0,3.7469,3.7479,3.7468,3.7451,3.7449,3.7449,3.7448,3.7448,3.742,3.7419,3.7418,3.7418,3.7397,3.7397,3.7397,3.7411,0,0,3.7397,3.7397,0,0,0,0,0,0,0,0,3.7469,3.7468,3.7454,3.7452,3.745,3.7436,3.7445,3.7436,3.742,3.7431,3.7418,3.7417,3.7411,3.7409,3.7407,3.741,3.7409,3.7397,3.7397,3.7397,3.7397,0,0,0,0,0,0,0,3.747,3.7469,3.746,3.7453,3.7451,3.7444,3.7442,3.7443,3.7425,3.743,3.7428,3.7426,3.741,3.7408,3.7407,3.7409,3.7397,3.7397,3.7397,3.7396,3.7423,3.7424,0,0,0,0,0,0,3.7473,3.747,3.7461,3.746,3.7458,3.7444,3.7442,3.7441,3.7425,3.7422,3.7427,3.7425,3.7408,3.7407,3.7406,3.7422,3.7397,3.7396,3.7396,3.7422,3.7423,3.7424,0,0,0,0,0,0,3.7474,3.7473,3.7461,3.7464,3.7462,3.7445,3.7444,3.7441,3.7439,3.7423,3.7419,3.7428,3.7407,3.7406,3.741,3.742,3.7396,3.7396,3.7421,3.7423,3.7424,3.7453,0,0,0,0,0,0,3.7474,3.7473,3.7479,3.7464,3.7462,3.7467,3.7445,3.7441,3.7439,3.7436,3.7423,3.742,3.7407,3.7411,3.741,3.742,3.7396,3.742,3.7422,3.7423,3.7451,3.7455,3.7459,0,0,0,0,0,3.7475,3.7487,3.7479,3.7478,3.7468,3.7467,3.7466,3.7451,3.744,3.7445,3.7435,3.742,3.7419,3.7411,3.7411,3.742,3.742,3.7421,3.7423,3.745,3.7454,3.7459,0,0,0,0,0,0,3.7503,3.7485,3.7476,3.7484,3.7477,3.7462,3.7468,3.7456,3.7452,3.745,3.7431,3.7428,3.7435,3.7428,3.7419,3.7433,3.7417,3.7419,3.7438,3.7442,3.7446,3.7447,3.7396,0,0,0,0,0,3.751,3.7511,3.7495,3.7504,3.7501,3.7486,3.7484,3.7473,3.7466,3.7463,3.7452,3.7445,3.7443,3.7442,3.744,3.745,3.7447,3.7456,3.746,3.7463,3.7465,3.747,3.7475,3.743,3.743,3.743,0,0,3.7525,3.7515,3.7517,3.7509,3.7503,3.7504,3.7483,3.7485,3.7486,3.7463,3.7466,3.7459,3.7449,3.7457,3.746,3.7451,3.7477,3.7466,3.7468,3.7468,3.7473,3.7477,3.7481,3.7431,3.7431,3.7431,0,0,3.7552,3.7545,3.7552,3.7546,3.7536,3.7526,3.7528,3.7515,3.7509,3.7512,3.7495,3.7495,3.7492,3.7487,3.7483,3.7509,3.7496,3.7509,3.7528,3.7534,3.7537,3.754,3.755,3.7553,3.7511,3.7511,3.7511,0,3.7571,3.7573,3.7557,3.756,3.7557,3.7537,3.7544,3.7539,3.7529,3.7527,3.7518,3.7514,3.7507,3.7513,3.7519,3.7517,3.7519,3.751,3.7538,3.7541,3.7544,3.7552,3.7556,3.7512,3.7512,3.7512,3.7512,0,3.7597,3.7598,3.7605,3.7596,3.7594,3.7599,3.7584,3.7584,3.7573,3.7564,3.7568,3.7558,3.7553,3.7554,3.7543,3.7559,3.7554,3.7542,3.7525,3.755,3.7558,3.7561,3.7515,3.7514,3.7514,3.7513,0,0,3.7641,3.7624,3.7627,3.7623,3.7612,3.7612,3.7616,3.7612,3.7612,3.7606,3.7609,3.7608,3.7597,3.7593,3.7581,3.7586,3.7608,3.7573,3.7573,3.758,3.7625,3.7634,3.7638,3.7599,3.76,3.76,3.7625,0,3.7667,3.7673,3.7659,3.7669,3.767,3.7651,3.7654,3.7647,3.7639,3.7638,3.7628,3.7628,3.7613,3.7611,3.7615,3.7604,3.7616,3.7602,3.7602,3.7602,3.7605,3.7642,3.7652,3.7676,3.7628,3.7629,3.7629,0,3.7697,3.7693,3.7703,3.7691,3.7691,3.7695,3.769,3.769,3.7682,3.7675,3.7671,3.7658,3.7661,3.7646,3.765,3.764,3.7639,3.7634,3.7635,3.7634,3.7617,3.7643,3.7684,3.7688,3.7634,3.7634,3.7633,0,3.7729,3.7726,3.7732,3.7729,3.7715,3.7718,3.7713,3.7704,3.7702,3.7698,3.7697,3.7693,3.7691,3.7688,3.7674,3.7664,3.768,3.7663,3.7674,3.7675,3.7679,3.7679,3.772,3.7678,3.7678,3.7678,3.7678,0,3.7759,3.7766,3.7746,3.7749,3.7757,3.774,3.7748,3.774,3.7733,3.7735,3.7718,3.7719,3.7701,3.7701,3.769,3.7695,3.7694,3.7689,3.7686,3.7691,3.7691,3.769,3.7688,3.7679,3.7678,3.7678,3.7678,0,3.7795,3.7782,3.7787,3.7774,3.7771,3.7777,3.7766,3.7768,3.7759,3.7761,3.7761,3.7746,3.7745,3.7731,3.7726,3.7719,3.7729,3.7722,3.7732,3.773,3.7742,3.7741,3.7784,3.7789,3.7744,3.7744,3.7744,0,3.7815,3.782,3.7808,3.7808,3.7803,3.7804,3.7802,3.7786,3.7785,3.7777,3.7781,3.7778,3.7776,3.7775,3.7764,3.776,3.7754,3.7769,3.7753,3.7758,3.7755,3.7755,3.7755,3.7773,3.7773,3.7774,3.7774,0,3.7852,3.7846,3.7844,3.7841,3.784,3.7836,3.7831,3.7832,3.7815,3.7815,3.7814,3.7812,3.7808,3.7806,3.7801,3.7795,3.7782,3.7779,3.7782,3.7787,3.7792,3.779,3.7741,3.7778,3.7778,3.7778,3.7777,3.7777,3.7882,3.7885,3.7877,3.7876,3.7871,3.7867,3.7869,3.786,3.7859,3.7855,3.7845,3.7846,3.7838,3.783,3.7825,3.7825,3.7817,3.7821,3.7822,3.7823,3.7826,3.7792,3.7824,3.7824,3.7824,3.7824,3.7824,0,3.7918,3.7912,3.7911,3.7905,3.7905,3.7893,3.7887,3.7887,3.7888,3.7882,3.788,3.7879,3.7877,3.7866,3.7862,3.7865,3.7859,3.7864,3.7864,3.7863,3.7833,3.7831,3.7869,3.7869,3.7869,3.7869,3.7869,3.7869,3.7937,3.7943,3.7935,3.7938,3.7932,3.7933,3.793,3.7927,3.7922,3.7922,3.792,3.7913,3.7905,3.7901,3.7898,3.7895,3.7895,3.7903,3.7897,3.7869,3.7865,3.7861,3.7859,3.7903,3.7903,3.7928,3.7928,3.7928]}]]